Simultaneous Nadir Overpasses (SNOs) Predictions

Prediction of SNOs between GOES-15 and FY3D Satellite Orbit:

Table of predicted SNOs for the next 14.0 days since TLE Epoch: 6/4/2022
Index Date Time (GOES-15) GOES-15 Lat,Lon FY3D Lat,Lon Distance(km) Time Diff (sec)
1 06/04/2022 22:37:47 0.02,-128.12 -0.96,-132.38 485.83 80
2 06/05/2022 22:22:02 0.01,-128.15 0.04,-127.92 25.36 80
3 06/08/2022 10:23:18 -0.02,-128.22 0.11,-128.86 72.90 80
4 06/09/2022 10:07:34 -0.01,-128.24 -0.89,-124.40 437.65 80
5 06/10/2022 22:27:20 0.04,-128.26 -0.33,-129.81 177.65 80
6 06/11/2022 22:11:35 0.03,-128.27 0.67,-125.35 332.59 80
7 06/13/2022 10:31:16 -0.06,-128.31 0.48,-130.75 277.81 80
8 06/14/2022 10:15:31 -0.05,-128.32 -0.53,-126.29 231.62 80
9 06/15/2022 22:35:18 0.08,-128.32 -0.69,-131.70 385.76 80
10 06/16/2022 22:19:33 0.07,-128.33 0.32,-127.24 123.60 80
